Regional Weather Roundup
Issued by NWS

Home | Current Version | Previous Version | Graphics & Text | Print | Product List | Glossary On
Versions: 1 2 3 4 5 6 7 8 9 10 11 12 13 14 15 16 17 18 19 20 21 22 23 24 25 26 27 28 29 30 31 32 33 34 35 36 37 38 39 40 41 42 43 44 45 46 47 48 49 50
000
ASUS43 KLOT 230203
RWRIL

ILLINOIS REGIONAL WEATHER ROUNDUP
NATIONAL WEATHER SERVICE CHICAGO/ROMEOVILLE IL
900 PM CDT MON MAY 22 2017

NOTE: "FAIR" INDICATES FEW OR NO CLOUDS BELOW 12,000 FEET WITH NO
SIGNIFICANT WEATHER AND/OR OBSTRUCTIONS TO VISIBILITY.

* THESE STATIONS ARE NOT UNDER NWS QUALITY CONTROL. THEY ALSO MAY NOT
  REPORT WEATHER SUCH AS PRECIPITATION OR FOG.

ILZ001-002-007-009-015-016-024-230300-
NORTHWEST ILLINOIS

CITY           SKY/WX    TMP DP  RH WIND       PRES   REMARKS
MOLINE         CLOUDY    61  55  81 SW10      29.88R
STERLING*      MOCLDY    60  55  83 VRB6      29.90R
$$

ILZ003-004-008-010-011-017-018-230300-
NORTH CENTRAL ILLINOIS

CITY           SKY/WX    TMP DP  RH WIND       PRES   REMARKS
ROCKFORD       MOCLDY    61  53  75 S15       29.89S
FREEPORT*      PTCLDY    58  54  86 S12       29.89S
ROCHELLE*      MOCLDY    58  55  87 S14       29.90S
DE KALB*       CLOUDY    60  55  84 S12       29.92R
$$

ILZ005-006-012>014-019>023-230300-
NORTHEAST ILLINOIS

CITY           SKY/WX    TMP DP  RH WIND       PRES   REMARKS
CHICAGO-OHARE  MOCLDY    63  53  70 SW13G23   29.91R
CHICAGO-MIDWAY CLOUDY    64  52  64 SW21G28   29.92S
AURORA         CLOUDY    61  56  83 S14       29.94R
LANSING*       CLOUDY    63  54  71 SW17      29.94F
WAUKEGAN       CLOUDY    64  54  69 SW16G23   29.87S
DUPAGE AIRPORT CLOUDY    61  55  81 SW17      29.92R
WHEELING       CLOUDY    63  55  75 S15G23    29.92R
MORRIS*        CLOUDY    59  55  88 SW7       29.94S
ROMEOVILLE*    RAIN      59  57  95 SW15G23   29.95R
NORTHERLY ISL    N/A     64  50  60 S8          N/A
$$

LMZ740>746-230300-
SOUTHERN LAKE MICHIGAN

STATION/POSITION SKY/WX   TEMP    WIND        PRES    VSBY  WAVE
                          AIR SEA DIR/SP/G                  HT/PER
                          (F)     (DEG/KT/KT) (MB)    (MI)  (FT/S)
SOUTHERN BUOY              50 45  180/ 10/ 10 1012.0          1
WILMETTE HARBOR            60 54                N/A           2/ 3
HARRISON CRIB              65     210/ 24/ 28   N/A
BURNHAM HARBOR             64     190/ 10/ 17   N/A
CALUMET HARBOR             64     200/  9/ 12 1013.1R
BURNS HARBOR               64     230/ 16/ 23 1014.2R
MICHIGAN CITY              62     230/ 20/ 21   N/A
MICHIGAN CITY 6N           59 53  240/ 14/ 17   N/A           2/ 3
ST. JOSEPH                 62 54  240/ 14/ 19 1013.6R         2/ 3
$$

ILZ025>027-034>036-040-047-049-050-058-095>099-230300-
WEST-CENTRAL ILLINOIS

CITY           SKY/WX    TMP DP  RH WIND       PRES   REMARKS
QUINCY         CLOUDY    59  57  93 W7        29.96S
GALESBURG*     CLOUDY    59  55  88 S9        29.91S
MACOMB*        LGT RAIN  58  56  93 SW8       29.97R
$$

ILZ028>032-037-038-041>044-048-051>054-059>061-230300-
CENTRAL ILLINOIS

CITY           SKY/WX    TMP DP  RH WIND       PRES   REMARKS
BLOOMINGTON    CLOUDY    57  55  93 SW7       29.98F
DECATUR        LGT RAIN  60  55  83 N7        29.97F
PEORIA         LGT RAIN  58  57  97 S8        29.95R
LACON*         MOCLDY    59  55  88 S7        29.94R
LINCOLN*       RAIN      60  59  97 CALM      29.96F
SPRINGFIELD    CLOUDY    60  59  96 E5        29.96F
TAYLORVILLE    NOT AVBL
$$

ILZ033-039-045-046-055>057-062-063-230300-
EAST-CENTRAL ILLINOIS

CITY           SKY/WX    TMP DP  RH WIND       PRES   REMARKS
CHAMPAIGN      CLOUDY    62  53  72 NW10      29.98R
MATTOON        PTCLDY    62  53  72 CALM      29.97R
$$

ILZ079-100>102-230300-
SOUTHWEST ILLINOIS

CITY           SKY/WX    TMP DP  RH WIND       PRES   REMARKS
ALTON          MOCLDY    63  52  67 S6        29.95F
BELLEVILLE     CLOUDY    66  51  58 S3        29.96S
CAHOKIA*       MOCLDY    68  48  48 S6        29.94S
SPARTA*        CLOUDY    65  53  67 CALM      29.97S
$$

ILZ064>066-069>071-074>076-080>082-084>086-088>090-092>094-230300-
SOUTH-CENTRAL ILLINOIS

CITY           SKY/WX    TMP DP  RH WIND       PRES   REMARKS
CARBONDALE     CLOUDY    64  60  87 CALM      29.96S
CAIRO*         MOCLDY    68  54  61 NE3       29.96S
EFFINGHAM*     PTCLDY    60  57  90 CALM      29.99R
MARION         PTCLDY    64  57  77 CALM      29.97F
MT. VERNON       N/A     60  55  83 CALM      29.97S
SALEM*         PTCLDY    64  54  71 CALM      29.97S HAZE
$$

ILZ067-068-072-073-078-083-087-091-230300-
SOUTHEAST ILLINOIS

CITY           SKY/WX    TMP DP  RH WIND       PRES   REMARKS
LAWRENCEVILLE  CLOUDY    67  48  50 S6        29.99R
FLORA*         CLOUDY    67  54  61 CALM      29.98S
FAIRFIELD*     CLOUDY    63  54  72 CALM      29.97R
HARRISBURG*    CLOUDY    66  54  63 CALM      29.97F
ROBINSON*      PTCLDY    62  55  75 CALM      29.99R
CARMI*         MOCLDY    65  52  62 SE6       29.98S
$$

ABBREVIATIONS USED IN REMARKS
   TC - TEMPERATURE IN CELSIUS
  WCI - WIND CHILL INDEX
   HX - HEAT INDEX
  VSB - VISIBILITY
$$





USA.gov is the U.S. government's official web portal to all federal, state and local government web resources and services.